[[{"header":{"parameterUnit":"m.s-1","parameterCategory":1,"la1":30.2991,"la2":30.254,"lo1":-89.0895,"lo2":-89.0444,"dy":0.0017,"dx":0.0017,"nx":28,"ny":28,"refTime":"2025-04-04T09:00:00:Z","depth":0,"parameterNumber":2,"parameterNumberName":"U-component_of_WINDS"},"data":[0,0,0,0,0,0,0,0,0,0,0,0,0,0,0,0,0,0,0,0,0,0,0,0,0,0,0,0,0,0,0,0,0,0,0,0,0,0,0,0,0,0,0,0,0,0,0,0,0,0,0,0,0,0,0,0,0,0,-3.7604,-3.7606,0,-3.7748,-3.775,-3.7752,-3.7798,-3.7798,-3.7797,-3.7796,-3.7944,-3.7949,-3.7953,0,0,0,0,0,0,0,0,0,0,0,0,0,-3.737,-3.7374,-3.7604,-3.7606,-3.7608,-3.7748,-3.775,-3.7752,-3.7798,-3.7798,-3.7797,-3.7796,-3.7943,-3.7948,-3.7953,0,0,0,0,0,0,0,0,0,0,0,0,0,-3.7489,-3.7375,-3.7604,-3.7648,-3.7653,-3.7748,-3.775,-3.7753,-3.7798,-3.7798,-3.7797,-3.7796,-3.7941,-3.7947,-3.7954,-3.8016,0,0,-3.7975,-3.7978,0,0,0,0,0,0,0,0,-3.7482,-3.7497,-3.7639,-3.7645,-3.7651,-3.7754,-3.7722,-3.7841,-3.7799,-3.7743,-3.7796,-3.7795,-3.7882,-3.7893,-3.7923,-3.8022,-3.8029,-3.7976,-3.798,-3.7983,-3.7985,0,0,0,0,0,0,0,-3.7474,-3.7491,-3.7661,-3.7641,-3.7648,-3.7661,-3.7676,-3.7745,-3.7816,-3.7748,-3.7752,-3.7768,-3.7885,-3.7916,-3.7926,-3.8031,-3.7975,-3.7981,-3.7986,-3.7988,-3.819,-3.8191,0,0,0,0,0,0,-3.7458,-3.7484,-3.7656,-3.7665,-3.7562,-3.7666,-3.7683,-3.7722,-3.7816,-3.7829,-3.7769,-3.777,-3.7905,-3.7918,-3.7932,-3.801,-3.7983,-3.7989,-3.7993,-3.8188,-3.819,-3.8191,0,0,0,0,0,0,-3.7453,-3.7473,-3.7651,-3.7576,-3.7599,-3.7671,-3.7714,-3.7725,-3.7757,-3.7831,-3.7844,-3.7787,-3.7904,-3.7922,-3.7995,-3.8015,-3.7992,-3.7998,-3.8187,-3.8189,-3.8191,-3.8166,0,0,0,0,0,0,-3.7446,-3.7471,-3.7494,-3.7576,-3.7603,-3.771,-3.7715,-3.7729,-3.7768,-3.7771,-3.7852,-3.7865,-3.7905,-3.7984,-3.8001,-3.8024,-3.8004,-3.8185,-3.8188,-3.819,-3.8165,-3.8167,-3.8168,0,0,0,0,0,-3.7437,-3.7481,-3.7495,-3.7515,-3.7634,-3.7711,-3.7727,-3.7773,-3.777,-3.7794,-3.7843,-3.7862,-3.8011,-3.7991,-3.8011,-3.8036,-3.8184,-3.8187,-3.819,-3.8164,-3.8166,-3.8168,0,0,0,0,0,0,-3.7399,-3.7493,-3.7509,-3.7581,-3.7638,-3.7719,-3.7751,-3.7773,-3.7832,-3.7832,-3.7887,-3.7905,-3.7973,-3.8012,-3.7989,-3.8101,-3.8099,-3.8105,-3.8072,-3.8075,-3.8076,-3.8065,-3.8009,0,0,0,0,0,-3.74,-3.7454,-3.7533,-3.7589,-3.7617,-3.7679,-3.7715,-3.7745,-3.7806,-3.7831,-3.7884,-3.7943,-3.8004,-3.8042,-3.8101,-3.8172,-3.819,-3.82,-3.8201,-3.8202,-3.8206,-3.8247,-3.8252,-3.8201,-3.8201,-3.8201,0,0,-3.74,-3.7458,-3.7489,-3.7583,-3.7631,-3.7687,-3.7699,-3.7757,-3.78,-3.784,-3.7911,-3.7953,-3.8022,-3.8094,-3.8128,-3.8129,-3.8225,-3.8205,-3.8205,-3.821,-3.8251,-3.8255,-3.826,-3.8203,-3.8202,-3.8202,0,0,-3.7429,-3.7479,-3.7531,-3.7579,-3.7651,-3.7693,-3.7705,-3.7784,-3.7813,-3.7886,-3.7917,-3.7969,-3.8071,-3.812,-3.8157,-3.8207,-3.8228,-3.8226,-3.8232,-3.8271,-3.8275,-3.8279,-3.8297,-3.8302,-3.8231,-3.8231,-3.823,0,-3.7421,-3.7506,-3.7555,-3.7612,-3.7652,-3.7692,-3.7745,-3.779,-3.7878,-3.7905,-3.7905,-3.8035,-3.8085,-3.8168,-3.8181,-3.8211,-3.8227,-3.8215,-3.8271,-3.8275,-3.828,-3.8297,-3.8303,-3.823,-3.823,-3.823,-3.823,0,-3.7491,-3.755,-3.7584,-3.7668,-3.7712,-3.7767,-3.7825,-3.7865,-3.7892,-3.7933,-3.8008,-3.8069,-3.8142,-3.8165,-3.8192,-3.8253,-3.8251,-3.826,-3.8258,-3.8283,-3.83,-3.8307,-3.8228,-3.8229,-3.8229,-3.8229,0,0,-3.7499,-3.7611,-3.7622,-3.7661,-3.7745,-3.7791,-3.7849,-3.792,-3.7953,-3.8013,-3.8062,-3.8149,-3.8159,-3.8202,-3.8235,-3.827,-3.8305,-3.8275,-3.8278,-3.8278,-3.8376,-3.8367,-3.8374,-3.832,-3.8321,-3.8323,-3.837,0,-3.7538,-3.7641,-3.7688,-3.777,-3.7825,-3.7865,-3.7915,-3.7972,-3.8013,-3.8066,-3.8112,-3.8173,-3.8181,-3.8207,-3.8244,-3.8293,-3.8325,-3.829,-3.8366,-3.8368,-3.8345,-3.8383,-3.8374,-3.8415,-3.8377,-3.8378,-3.8379,0,-3.7597,-3.7657,-3.7745,-3.7823,-3.7848,-3.7892,-3.7961,-3.8012,-3.8078,-3.8106,-3.8155,-3.8187,-3.8249,-3.8245,-3.8332,-3.8307,-3.8341,-3.8371,-3.8373,-3.8381,-3.8373,-3.839,-3.8429,-3.8435,-3.839,-3.8389,-3.8388,0,-3.7592,-3.7695,-3.7761,-3.7794,-3.7887,-3.7917,-3.7957,-3.8022,-3.8063,-3.8124,-3.8151,-3.8219,-3.8256,-3.8308,-3.8358,-3.835,-3.844,-3.844,-3.8465,-3.8463,-3.848,-3.8478,-3.8524,-3.8505,-3.8505,-3.8504,-3.8504,0,-3.763,-3.7681,-3.776,-3.7801,-3.786,-3.7915,-3.7972,-3.8016,-3.8074,-3.8124,-3.8163,-3.8209,-3.8273,-3.8328,-3.8368,-3.8434,-3.8451,-3.8475,-3.8484,-3.847,-3.8467,-3.8492,-3.849,-3.8506,-3.8506,-3.8505,-3.8505,0,-3.7633,-3.7688,-3.7763,-3.7845,-3.7867,-3.7908,-3.7978,-3.802,-3.8064,-3.8126,-3.8144,-3.8213,-3.828,-3.8335,-3.8423,-3.845,-3.8518,-3.853,-3.8495,-3.85,-3.8521,-3.8518,-3.8584,-3.8595,-3.8569,-3.8569,-3.8569,0,-3.7653,-3.7694,-3.7781,-3.7817,-3.7857,-3.7915,-3.7956,-3.8012,-3.8054,-3.8133,-3.8165,-3.8234,-3.8292,-3.8397,-3.8455,-3.8522,-3.8535,-3.8554,-3.8546,-3.853,-3.8535,-3.8531,-3.8535,-3.8554,-3.8554,-3.8554,-3.8554,0,-3.7682,-3.7707,-3.7765,-3.7834,-3.7882,-3.7938,-3.7996,-3.8023,-3.809,-3.8135,-3.8203,-3.8248,-3.8338,-3.8406,-3.848,-3.8523,-3.8549,-3.8556,-3.8566,-3.8551,-3.8528,-3.854,-3.8495,-3.8554,-3.8554,-3.8554,-3.8554,-3.8554,-3.7694,-3.7732,-3.7799,-3.7863,-3.7912,-3.7965,-3.8008,-3.8058,-3.8116,-3.8192,-3.8222,-3.8292,-3.8359,-3.8461,-3.8504,-3.856,-3.8563,-3.8577,-3.858,-3.8582,-3.8579,-3.8521,-3.8574,-3.8574,-3.8574,-3.8574,-3.8574,0,-3.7724,-3.777,-3.7828,-3.7907,-3.7957,-3.7979,-3.8044,-3.8084,-3.8145,-3.8205,-3.8262,-3.8341,-3.8408,-3.8472,-3.8543,-3.8575,-3.8589,-3.8592,-3.8589,-3.8598,-3.8573,-3.8557,-3.8579,-3.8579,-3.8579,-3.8579,-3.8579,-3.8579,-3.7745,-3.7811,-3.7845,-3.7936,-3.7982,-3.805,-3.8085,-3.8135,-3.8183,-3.8269,-3.8325,-3.8367,-3.8429,-3.8504,-3.8567,-3.8584,-3.8608,-3.8607,-3.8627,-3.8601,-3.86,-3.8599,-3.8584,-3.8612,-3.8612,-3.8648,-3.8648,-3.8648]},{"header":{"parameterUnit":"m.s-1","parameterCategory":1,"la1":30.2991,"la2":30.254,"lo1":-89.0895,"lo2":-89.0444,"dy":0.0017,"dx":0.0017,"nx":28,"ny":28,"refTime":"2025-04-04T09:00:00:Z","depth":0,"parameterNumber":3,"parameterNumberName":"V-component_of_WINDS"},"data":[0,0,0,0,0,0,0,0,0,0,0,0,0,0,0,0,0,0,0,0,0,0,0,0,0,0,0,0,0,0,0,0,0,0,0,0,0,0,0,0,0,0,0,0,0,0,0,0,0,0,0,0,0,0,0,0,0,0,5.5246,5.5247,0,5.5352,5.5353,5.5354,5.534,5.5339,5.5337,5.5335,5.5442,5.5446,5.5451,0,0,0,0,0,0,0,0,0,0,0,0,0,5.5031,5.5035,5.5246,5.5247,5.5248,5.5352,5.5353,5.5355,5.5341,5.5339,5.5337,5.5335,5.5441,5.5446,5.5451,0,0,0,0,0,0,0,0,0,0,0,0,0,5.5129,5.5037,5.5245,5.5254,5.5256,5.5351,5.5353,5.5355,5.5341,5.5339,5.5336,5.5334,5.5439,5.5445,5.5452,5.5545,0,0,5.5472,5.5475,0,0,0,0,0,0,0,0,5.5124,5.5137,5.5251,5.5254,5.5256,5.533,5.5317,5.5419,5.5342,5.5309,5.5335,5.5332,5.5407,5.5416,5.5442,5.555,5.5555,5.5473,5.5477,5.548,5.5482,0,0,0,0,0,0,0,5.5117,5.5133,5.5288,5.5253,5.5256,5.5253,5.5264,5.5336,5.5371,5.5311,5.5311,5.5324,5.5408,5.5435,5.5444,5.5556,5.5473,5.5479,5.5483,5.5486,5.575,5.5753,0,0,0,0,0,0,5.5108,5.5127,5.5284,5.5291,5.5182,5.5259,5.5271,5.5309,5.537,5.5377,5.5326,5.5323,5.5425,5.5436,5.5448,5.5563,5.548,5.5486,5.549,5.5747,5.5751,5.5754,0,0,0,0,0,0,5.5104,5.5122,5.528,5.5209,5.5229,5.5265,5.5308,5.5312,5.534,5.5381,5.5387,5.5347,5.5423,5.5438,5.5522,5.5567,5.5489,5.5495,5.5744,5.5748,5.5752,5.5794,0,0,0,0,0,0,5.5098,5.5121,5.5156,5.521,5.5233,5.5353,5.5311,5.5316,5.5352,5.5349,5.5403,5.541,5.5423,5.5512,5.5529,5.5574,5.55,5.574,5.5746,5.5751,5.5788,5.5799,5.5808,0,0,0,0,0,5.509,5.5163,5.5158,5.5177,5.5278,5.5355,5.5368,5.5382,5.5355,5.5392,5.5419,5.5408,5.5559,5.5521,5.5539,5.5588,5.5737,5.5744,5.5751,5.5784,5.5797,5.5808,0,0,0,0,0,0,5.5112,5.517,5.5165,5.5258,5.5302,5.5353,5.5399,5.5395,5.5447,5.5442,5.5456,5.5469,5.5554,5.5579,5.5535,5.5683,5.5644,5.5655,5.5663,5.5676,5.5686,5.5678,5.5506,0,0,0,0,0,5.5128,5.5186,5.5233,5.531,5.5333,5.5362,5.5396,5.5404,5.5449,5.5468,5.55,5.5545,5.5603,5.5641,5.5696,5.5792,5.5805,5.5834,5.5844,5.5852,5.5862,5.5917,5.5931,5.5776,5.5776,5.5776,0,0,5.5161,5.52,5.5235,5.5316,5.5351,5.5411,5.5378,5.5442,5.5488,5.5477,5.5559,5.5585,5.5636,5.5727,5.5769,5.575,5.5907,5.5861,5.5867,5.5872,5.5925,5.594,5.5953,5.5781,5.578,5.5779,0,0,5.5253,5.5287,5.5356,5.5393,5.5447,5.5466,5.5483,5.5535,5.5553,5.5635,5.563,5.5683,5.5782,5.5819,5.5851,5.596,5.5953,5.5977,5.6029,5.6083,5.6095,5.6106,5.6147,5.6161,5.5986,5.5987,5.5987,0,5.5287,5.5378,5.5392,5.5459,5.5495,5.549,5.5561,5.5595,5.5664,5.5689,5.5668,5.5794,5.5828,5.5929,5.5956,5.5981,5.6002,5.5972,5.6092,5.6103,5.6114,5.6153,5.6168,5.5989,5.5989,5.5989,5.5988,0,5.5419,5.5482,5.5531,5.56,5.5642,5.571,5.5735,5.5775,5.578,5.5802,5.5887,5.5928,5.5992,5.6017,5.602,5.6119,5.6107,5.6089,5.605,5.6131,5.6168,5.6183,5.5993,5.5992,5.5991,5.5991,0,0,5.5527,5.5604,5.5622,5.5655,5.5715,5.5764,5.5833,5.5897,5.5933,5.5981,5.604,5.6125,5.6109,5.6146,5.6154,5.6201,5.6287,5.6177,5.6179,5.6198,5.6401,5.6416,5.6433,5.6282,5.6285,5.6288,5.6398,0,5.5626,5.5748,5.5764,5.5873,5.5933,5.5929,5.599,5.6033,5.6056,5.6111,5.6135,5.6196,5.617,5.6192,5.6239,5.6267,5.6329,5.6259,5.6339,5.6341,5.6328,5.6452,5.6467,5.6569,5.6412,5.6415,5.6416,0,5.5757,5.5812,5.5927,5.5981,5.6007,5.6061,5.6123,5.6174,5.6224,5.6238,5.628,5.6283,5.6355,5.6313,5.6413,5.6366,5.6399,5.6418,5.6423,5.6432,5.6385,5.6467,5.6602,5.6618,5.6439,5.6437,5.6436,0,5.5828,5.5929,5.6012,5.6039,5.6104,5.6143,5.6171,5.6219,5.6258,5.6311,5.6337,5.6398,5.6432,5.6479,5.6499,5.6466,5.6599,5.6558,5.6613,5.6613,5.6642,5.664,5.6787,5.6661,5.666,5.666,5.666,0,5.5938,5.6009,5.6045,5.6096,5.6176,5.6194,5.6272,5.63,5.6343,5.6399,5.6399,5.6453,5.6475,5.6532,5.6547,5.663,5.6644,5.6658,5.6661,5.6659,5.6658,5.6682,5.6676,5.6664,5.6663,5.6663,5.6662,0,5.6031,5.6057,5.6147,5.6202,5.6218,5.6275,5.6322,5.6372,5.6395,5.6467,5.6485,5.652,5.6588,5.6612,5.6693,5.6704,5.68,5.6796,5.6784,5.6785,5.6839,5.6835,5.7008,5.7033,5.6889,5.689,5.6891,0,5.61,5.6155,5.6217,5.6255,5.6286,5.6348,5.6388,5.6408,5.6449,5.6512,5.6555,5.6622,5.6677,5.6785,5.6819,5.6882,5.6881,5.6937,5.689,5.6887,5.6885,5.6882,5.6889,5.6947,5.6948,5.6949,5.695,0,5.6221,5.6232,5.629,5.6354,5.6402,5.6453,5.6502,5.6534,5.6561,5.6608,5.6678,5.6721,5.6805,5.6873,5.6937,5.6967,5.6964,5.6965,5.6981,5.698,5.6971,5.6979,5.681,5.6961,5.696,5.6959,5.6958,5.6958,5.6306,5.6356,5.6408,5.6474,5.6513,5.656,5.661,5.664,5.6699,5.677,5.6777,5.6853,5.6904,5.6991,5.7024,5.7084,5.7068,5.7091,5.7098,5.7104,5.7109,5.6961,5.7095,5.7095,5.7094,5.7094,5.7094,0,5.643,5.6464,5.6524,5.6594,5.6645,5.6638,5.6693,5.6737,5.6804,5.6852,5.6907,5.6988,5.7054,5.7093,5.7159,5.72,5.72,5.7217,5.7215,5.7223,5.7118,5.7098,5.7216,5.7216,5.7216,5.7215,5.7215,5.7215,5.65,5.6585,5.6603,5.6708,5.6741,5.6816,5.6848,5.6892,5.693,5.7021,5.7077,5.7102,5.7147,5.7217,5.7278,5.7288,5.7313,5.7331,5.734,5.7242,5.7229,5.7218,5.7199,5.7336,5.7336,5.744,5.7441,5.7442]}]]